Weather reports worldwide

Advertisment
Alghero, Italy (16520): temperature & dewpoint: 12.09.2019 06:00:00 - 18.09.2019 06:00:00 (CEST)Alghero, Italy (16520): wind speed: 12.09.2019 06:00:00 - 18.09.2019 06:00:00 (CEST)Alghero, Italy (16520): wind direction: 12.09.2019 06:00:00 - 18.09.2019 06:00:00 (CEST)Alghero, Italy (16520): reduced air pressure: 12.09.2019 06:00:00 - 18.09.2019 06:00:00 (CEST)Alghero, Italy (16520): visibility: 12.09.2019 06:00:00 - 18.09.2019 06:00:00 (CEST)Alghero, Italy (16520): precipitation: 12.09.2019 06:00:00 - 18.09.2019 06:00:00 (CEST)
Date & Time tt [°C] td [°C] ff [km/h] ff [kn] dd ppp [hPa] vv [km] rr [mm]
18.09.2019 06:00:00 - - - - - - - -
18.09.2019 05:00:00 17,1 16,5 5 3 E 1015,1 10 0,0
18.09.2019 04:00:00 17,0 16,0 5 3 NNW - 10 -
18.09.2019 03:00:00 17,0 17,0 4 2 NW - 10 -
18.09.2019 02:00:00 18,5 18,0 5 3 ESE 1016,2 10 -
18.09.2019 01:00:00 19,0 19,0 2 1 - - 10 -
18.09.2019 00:00:00 20,0 18,0 5 3 E - 10 -
17.09.2019 23:00:00 19,8 18,9 4 2 - 1015,4 10 0,0
17.09.2019 22:00:00 22,0 19,0 4 2 NE - 10 -
17.09.2019 21:00:00 23,0 19,0 8 4 NE - 10 -
17.09.2019 20:00:00 23,8 20,9 8 4 NNW 1015,0 10 -
17.09.2019 19:00:00 26,0 19,0 11 6 NW - 10 -
17.09.2019 18:00:00 28,0 17,0 11 6 N - 10 -
17.09.2019 17:00:00 27,9 20,4 11 6 NNW 1015,3 10 0,0
17.09.2019 16:00:00 29,0 20,0 11 6 NNW - 10 -
17.09.2019 15:00:00 29,0 21,0 11 6 NNW - 10 -
17.09.2019 14:00:00 28,4 21,0 15 8 NW 1016,4 10 -
17.09.2019 13:00:00 30,0 16,0 8 4 SSW - 10 -
17.09.2019 12:00:00 27,0 19,0 8 4 SW - 10 -
17.09.2019 11:00:00 26,2 21,2 9 5 SSW 1017,5 10 0,0
17.09.2019 10:00:00 24,0 19,0 2 1 - - 10 -
17.09.2019 09:00:00 20,0 18,0 2 1 - - 10 -
17.09.2019 08:00:00 16,0 15,6 4 2 ENE 1017,2 10 -
17.09.2019 07:00:00 16,0 15,0 5 3 ENE - 10 -
17.09.2019 06:00:00 - - - - - - - -
17.09.2019 05:00:00 17,5 17,2 2 1 - 1016,9 10 0,0
17.09.2019 04:00:00 17,0 16,0 4 2 - - 10 -
17.09.2019 03:00:00 17,0 17,0 4 2 ENE - 10 -
17.09.2019 02:00:00 17,9 17,4 5 3 ENE 1017,9 10 -
17.09.2019 01:00:00 19,0 18,0 2 1 - - 10 -
17.09.2019 00:00:00 20,0 19,0 2 1 - - 10 -
16.09.2019 23:00:00 20,3 18,2 4 2 ENE 1018,3 10 0,0
16.09.2019 22:00:00 22,0 20,0 2 1 - - 10 -
16.09.2019 21:00:00 23,0 20,0 5 3 ENE - 10 -
16.09.2019 20:00:00 24,2 19,6 9 5 E 1017,2 10 -
16.09.2019 19:00:00 27,0 18,0 15 8 E - 10 -
16.09.2019 18:00:00 30,0 15,0 11 6 ENE - 10 -
16.09.2019 17:00:00 30,9 12,8 16 9 ENE 1017,1 10 0,0
16.09.2019 16:00:00 32,0 13,0 13 7 ENE - 10 -
16.09.2019 15:00:00 32,0 12,0 11 6 NE - 10 -
16.09.2019 14:00:00 31,4 11,8 13 7 ENE 1018,2 10 -
16.09.2019 13:00:00 31,0 12,0 13 7 ENE - 10 -
16.09.2019 12:00:00 30,0 13,0 11 6 E - 10 -
16.09.2019 11:00:00 28,4 14,9 5 3 - 1019,8 10 0,0
16.09.2019 10:00:00 25,0 17,0 4 2 - - 10 -
16.09.2019 09:00:00 20,0 16,0 8 4 ENE - 10 -
16.09.2019 08:00:00 17,9 16,0 8 4 ENE 1019,5 10 -
16.09.2019 07:00:00 16,0 15,0 4 2 NE - 10 -
16.09.2019 06:00:00 16,0 15,0 5 3 ENE - 10 -
16.09.2019 05:00:00 17,0 16,3 2 1 - 1019,1 10 0,0
16.09.2019 04:00:00 17,0 16,0 0 0 N - 10 -
16.09.2019 03:00:00 18,0 17,0 4 2 ENE - 10 -
16.09.2019 02:00:00 18,7 17,1 4 2 E 1020,3 10 -
16.09.2019 01:00:00 20,0 19,0 4 2 - - 10 -
16.09.2019 00:00:00 19,0 17,0 4 2 - - 10 -
15.09.2019 23:00:00 21,1 18,3 5 3 NE 1020,7 10 0,0
15.09.2019 22:00:00 22,0 17,0 2 1 - - 10 -
15.09.2019 21:00:00 24,0 17,0 13 7 ENE - 10 -
15.09.2019 20:00:00 24,5 16,5 13 7 ENE 1020,6 10 -
15.09.2019 19:00:00 27,0 16,0 11 6 ENE - 10 -
15.09.2019 18:00:00 27,0 17,0 13 7 ENE - 10 -
15.09.2019 17:00:00 27,9 14,5 9 5 NNE 1020,9 10 0,0
15.09.2019 16:00:00 28,0 14,0 11 6 NNW - 10 -
15.09.2019 15:00:00 29,0 14,0 16 9 NNW - 10 -
15.09.2019 14:00:00 29,3 12,3 15 8 W 1022,8 10 -
15.09.2019 13:00:00 29,0 14,0 15 8 SW - 10 -
15.09.2019 12:00:00 30,0 13,0 18 10 SW - 10 -
15.09.2019 11:00:00 28,1 13,8 8 4 SSW 1023,9 10 0,0
15.09.2019 10:00:00 26,0 14,0 2 1 - - 10 -
15.09.2019 09:00:00 21,0 16,0 4 2 - - 10 -
15.09.2019 08:00:00 18,0 15,3 2 1 - 1023,1 10 -
15.09.2019 07:00:00 16,0 15,0 4 2 NNW - 10 -
15.09.2019 06:00:00 16,0 15,0 2 1 - - 10 -
15.09.2019 05:00:00 16,8 14,9 8 4 E 1023,5 10 0,0
15.09.2019 04:00:00 18,0 16,0 4 2 NW - 10 -
15.09.2019 03:00:00 19,0 15,0 4 2 E - 10 -
15.09.2019 02:00:00 19,2 15,9 2 1 SE 1023,5 - -
15.09.2019 01:00:00 19,0 16,0 2 1 - - 10 -
15.09.2019 00:00:00 20,0 16,0 9 5 ENE - 10 -
14.09.2019 23:00:00 21,8 16,5 2 1 - 1023,6 10 0,0
14.09.2019 22:00:00 24,0 16,0 5 3 ESE - 10 -
14.09.2019 21:00:00 24,0 15,0 2 1 - - 10 -
14.09.2019 20:00:00 26,2 16,0 8 4 E 1022,9 10 -
14.09.2019 19:00:00 29,0 20,0 5 3 SSE - 10 -
14.09.2019 18:00:00 29,0 20,0 11 6 SW - 10 -
14.09.2019 17:00:00 31,6 16,3 9 5 SW 1022,2 10 0,0
14.09.2019 16:00:00 31,0 18,0 9 5 SW - 10 -
14.09.2019 15:00:00 31,0 14,0 13 7 NNW - 10 -
14.09.2019 14:00:00 32,0 13,9 9 5 SSW 1024,0 10 -
14.09.2019 13:00:00 31,0 15,0 9 5 SW - 10 -
14.09.2019 12:00:00 31,0 13,0 11 6 E - 10 -
14.09.2019 11:00:00 29,7 12,9 13 7 ESE 1024,5 10 0,0
14.09.2019 10:00:00 26,0 13,0 5 3 ENE - 10 -
14.09.2019 09:00:00 23,0 14,0 9 5 ENE - 10 -
14.09.2019 08:00:00 20,0 13,5 13 7 ENE 1025,0 10 -
14.09.2019 07:00:00 19,0 13,0 9 5 NE - 10 -
14.09.2019 06:00:00 19,0 14,0 11 6 NE - 10 -
14.09.2019 05:00:00 19,1 14,7 13 7 NE 1023,9 10 0,0
14.09.2019 04:00:00 20,0 15,0 9 5 NE - 10 -
14.09.2019 03:00:00 18,0 15,0 5 3 NNE - 10 -
14.09.2019 02:00:00 19,2 15,5 5 3 NNW 1024,3 10 -
14.09.2019 01:00:00 20,0 17,0 15 8 ENE - 10 -
14.09.2019 00:00:00 21,0 19,0 15 8 ENE - 10 -
13.09.2019 23:00:00 22,2 19,4 13 7 ENE 1025,2 10 0,0
13.09.2019 22:00:00 23,0 19,0 13 7 NE - 10 -
13.09.2019 21:00:00 24,0 18,0 13 7 NE - 10 -
13.09.2019 20:00:00 25,8 16,8 13 7 NE 1024,4 10 -
13.09.2019 19:00:00 29,0 15,0 16 9 NE - 10 -
13.09.2019 18:00:00 31,0 16,0 22 12 ENE - 10 -
13.09.2019 17:00:00 31,5 15,4 21 11 ENE 1024,3 10 0,0
13.09.2019 16:00:00 32,0 14,0 22 12 NE - 10 -
13.09.2019 15:00:00 32,0 14,0 21 11 ENE - 10 -
13.09.2019 14:00:00 31,8 12,8 21 11 ENE 1025,3 10 -
13.09.2019 13:00:00 32,0 10,0 22 12 E - 10 -
13.09.2019 12:00:00 30,0 11,0 18 10 ESE - 10 -
13.09.2019 11:00:00 28,4 13,1 18 10 ESE 1026,1 10 0,0
13.09.2019 10:00:00 26,0 15,0 22 12 E - 10 -
13.09.2019 09:00:00 23,0 14,0 13 7 ENE - 10 -
13.09.2019 08:00:00 18,7 11,4 15 8 ENE 1026,2 10 -
13.09.2019 07:00:00 17,0 11,0 11 6 NE - 10 -
13.09.2019 06:00:00 17,0 11,0 4 2 - - 10 -
13.09.2019 05:00:00 14,7 10,8 4 2 - 1025,9 10 0,0
13.09.2019 04:00:00 17,0 11,0 8 4 NE - 10 -
13.09.2019 03:00:00 18,0 11,0 8 4 NE - 10 -
13.09.2019 02:00:00 16,7 11,3 4 2 NE 1026,7 10 -
13.09.2019 01:00:00 21,0 11,0 5 3 NE - 10 -
13.09.2019 00:00:00 19,0 13,0 9 5 ENE - 10 -
12.09.2019 23:00:00 20,9 13,4 11 6 ENE 1026,4 10 0,0
12.09.2019 22:00:00 23,0 17,0 9 5 NE - 10 -
12.09.2019 21:00:00 25,0 17,0 15 8 ENE - 10 -
12.09.2019 20:00:00 26,3 15,3 21 11 ENE 1024,7 10 -
12.09.2019 19:00:00 29,0 14,0 28 15 ENE - 10 -
12.09.2019 18:00:00 30,0 12,0 26 14 ENE - 10 -
12.09.2019 17:00:00 31,2 10,2 29 16 ENE 1024,1 10 0,0
12.09.2019 16:00:00 31,0 14,0 24 13 ENE - 10 -
12.09.2019 15:00:00 32,0 13,0 15 8 NE - 10 -
12.09.2019 14:00:00 30,4 15,0 11 6 NNW 1025,6 10 -
12.09.2019 13:00:00 30,0 15,0 11 6 NW - 10 -
12.09.2019 12:00:00 28,0 14,0 8 4 SSW - 10 -
12.09.2019 11:00:00 27,6 14,1 5 3 SW 1025,8 10 0,0
12.09.2019 10:00:00 25,0 16,0 8 4 E - 10 -
12.09.2019 09:00:00 21,0 16,0 4 2 - - 10 -
12.09.2019 08:00:00 17,6 16,0 9 5 NE 1024,3 10 -
12.09.2019 07:00:00 16,0 15,0 2 1 - - 10 -
12.09.2019 06:00:00 - - - - - - - -

tt = temperature
td = dewpoint
ff = wind speed
dd = wind direction
ppp = reduced air pressure
vv = visibility
rr = precipitation

Next stations